千帆星座-223(QIANFAN-223)

导读

QIANFAN-223(NORAD编号69852)是中国上海垣信卫星科技有限公司运营的千帆(SpaceSail)低轨通信星座卫星。该系列卫星单星重约300公斤,采用扁平化设计、单太阳翼布局,配备氪工质霍尔效应电推进器,具备轨道机动能力。 千帆星座目标构建全球天基互联网服务网络,可面向中国及巴西、马来西亚、哈萨克斯坦、土耳其等国,以及航空场景提供通信服务,规划2030年前完成15000颗卫星部署。目前公开数据库暂未查询到该卫星的具体发射时间、精确轨道参数及当前运行状态的细节信息。

基本信息
目录编号:
69852
目录名称:
QIANFAN-223
国际标识:
2026-155E
轨道中心:
EARTH
卫星名称:
千帆星座-223
卫星全名:
千帆星座-223(QIANFAN-223)
卫星状态:
在轨 (已飞行62 天)
发射日期:
2026-07-05 UTC
国别 :
中国 (CN)
星等 :
--
轨道信息
数据来源 国际轨道数据
星历时间: 2026-09-05T06:06:24+0800
8小时前
查看轨道信息
半长轴: 7422.905km
偏心率: 0.0034068
轨道倾角: 89.007°
近地点辐角 52.675°
升交点赤经 55.322°
平近点角 307.750°
近地点: 1019.479km
远地点: 1070.057km
周期: 106.077分钟
每日圈数: 13.575067
详细信息
卫星平台:
223
覆盖范围:
全球
运营商:
上海垣信卫星科技有限公司
运营商所在国:
中国
使用方式:
暂无
卫星简介
千帆星座,也被称为“G60星链”计划,是中国版“星链”的重要组成部分,旨在打造一个由1.4万多颗低轨宽频多媒体卫星构成的庞大星座。千帆星座计划由上海垣信卫星科技有限公司负责实施,于2023年启动建设。该项目是我国第二个低轨卫星大星座,旨在通过构建庞大的卫星网络,为全球用户提供高质量的通信和宽带互联网服务。
2D轨道图
3D轨道图
轨道高度分析图
轨道倾角分析图
轨道综合分析图
查看轨道综合分析图
交会数据列表
事件ID 空间交会对象 最接近时刻(TCA) 交会距离 交会风险概率(CRP) 交会风险指数(CRI) 操作
CDM_260905-185700-157706-985221
2026-09-05T
18:57:43+0000
1.915 km
极远距离
3.140213E-6 低风险 0.45